Hourly Data Report for July 08, 2021

IQALUIT CLIMATE
NUNAVUT
Current Station Operator: ECCC - MSC

63°44'50.000" N
68°32'40.000" W
33.50 m
2402592
71321
XFB

Download Data

Hourly Data (July 2021)
Hourly Data Report for July 8, 2021
TIME
LST
Temp Definition
°C
Dew Point Definition
°C
Rel Hum Definition
%
Precip. Amount Definition
mm

Wind Dir Definition
10's deg

Wind Spd Definition
km/h
Visibility Definition
km
Stn Press Definition
kPa
Hmdx Definition


Wind Chill Definition


Weather Definition


00:00 5.1 1.2 76 0.0 15 3   100.50     LegendNANA
01:00 4.3 0.7 77 0.0 11 4   100.47     LegendNANA
02:00 4.2 1.2 81 0.0 10 4   100.43     LegendNANA
03:00 4.8 1.2 78 0.0 13 3   100.45     LegendNANA
04:00 4.6 1.9 82 0.0 15 8   100.44     LegendNANA
05:00 5.3 2.1 80 0.0 15 9   100.41     LegendNANA
06:00 6.3 1.9 73 0.0 14 6   100.39     LegendNANA
07:00 6.4 2.3 75 0.0 15 11   100.34     LegendNANA
08:00 6.9 2.6 74 0.0 16 15   100.33     LegendNANA
09:00 5.4 2.6 82 0.2 15 15   100.31     LegendNANA
10:00 5.9 2.6 79 0.0 11 14   100.29     LegendNANA
11:00 5.3 2.6 82 0.2 12 15   100.27     LegendNANA
12:00 5.8 4.0 88 1.4 13 14   100.23     LegendNANA
13:00 6.0 3.6 84 1.0 13 18   100.22     LegendNANA
14:00 5.3 3.3 87 0.7 16 16   100.20     LegendNANA
15:00 5.0 3.2 88 0.4 17 17   100.19     LegendNANA
16:00 4.6 3.2 91 0.5 16 9   100.17     LegendNANA
17:00 5.0 3.7 92 0.4 12 10   100.15     LegendNANA
18:00 4.0 3.0 93 0.3 14 12   100.17     LegendNANA
19:00 4.5 3.4 92 0.1 12 12   100.15     LegendNANA
20:00 5.4 4.5 94 0.2 14 18   100.10     LegendNANA
21:00 4.1 3.4 95 0.2 17 12   100.07     LegendNANA
22:00 4.1 3.5 96 0.6 13 16   100.05     LegendNANA
23:00 3.8 3.3 96 0.3 14 19   100.03     LegendNANA

Notes on Data Quality.

Legend

  • E = Estimated
  • M = Missing
  • NA = Not Available*
  • [empty] = Indicates an unobserved value
Date modified: